Grand Island, NE

7:44 AM CST on December 17, 2017 (GMT -0600)
Central Nebraska Regional

Weather History for KGRI - November, 2017

Change the Weather History Date:

Friday, November 24, 2017

  Actual Average Record
Temperature  
Mean Temperature 55 °F 34 °F  
Max Temperature 74 °F 45 °F 74 °F (2017)
Min Temperature 35 °F 23 °F -2 °F (1938)
Degree Days  
Heating Degree Days 10 31  
Month to date heating degree days 595 608  
Since 1 July heating degree days 1033 1131  
Cooling Degree Days 0 0  
Month to date cooling degree days 0 0  
Year to date cooling degree days 1062 1034  
Moisture  
Dew Point 37 °F    
Average Humidity 52    
Maximum Humidity 76    
Minimum Humidity 27    
Precipitation  
Precipitation 0.00 in 0.04 in 0.64 in (2001)
Month to date precipitation 0.51 0.97  
Year to date precipitation 29.94 25.83  
Snow  
Snow 0.00 in 0.20 in 3.00 in (1895)
Month to date snowfall 0.2 2.3  
Since 1 July snowfall 1.1 3.4  
Since 1 September snowfall 1.1 3.4  
Snow Depth 0.00 in    
Sea Level Pressure  
Sea Level Pressure 29.74 in    
Wind  
Wind Speed 17 mph (WNW)    
Max Wind Speed 44 mph    
Max Gust Speed 51 mph    
Visibility 10 miles    
Events      
T = Trace of Precipitation, MM = Missing Value Source: NWS Daily Summary

Daily Weather History Graph

Daily Weather History Graph

Search for Another Location

Airport or City:

Trip Planner

Search our weather history database for the weather conditions in past years. The results will help you decide how hot, cold, wet, or windy it might be!

Date:

Astronomy

Nov. 24, 2017 Rise Set
Actual Time 7:31 AM CST 5:08 PM CST
Civil Twilight 7:01 AM CST 5:38 PM CST
Nautical Twilight 6:27 AM CST 6:12 PM CST
Astronomical Twilight 5:54 AM CST 6:45 PM CST
Moon 12:12 PM CST (11/24) 10:31 PM CST (11/24)
Length of Visible Light 10h 37m
Length of Day
9h 36m
Waxing Crescent, 32% of the Moon is Illuminated
Nov 24
Waxing Crescent
Nov 26
First Quarter
Dec 3
Full
Dec 10
Last Quarter
Dec 18
New

Hourly Weather History & Observations

Time (CST) Temp. Windchill Dew Point Humidity Pressure Visibility Wind Dir Wind Speed Gust Speed Precip Events Conditions
12:53 AM 53.1 °F - 41.0 °F 64% 29.67 in 10.0 mi SW 15.0 mph - N/A   Clear
1:53 AM 53.1 °F - 41.0 °F 64% 29.64 in 10.0 mi WSW 16.1 mph - N/A   Clear
2:53 AM 51.1 °F - 39.9 °F 66% 29.63 in 10.0 mi WSW 11.5 mph - N/A   Clear
3:53 AM 50.0 °F - 39.9 °F 68% 29.62 in 10.0 mi WSW 12.7 mph - N/A   Clear
4:53 AM 48.9 °F - 39.0 °F 69% 29.61 in 10.0 mi WSW 15.0 mph - N/A   Clear
5:53 AM 48.0 °F - 37.9 °F 68% 29.60 in 10.0 mi WSW 16.1 mph - N/A   Clear
6:53 AM 46.9 °F - 37.0 °F 68% 29.60 in 10.0 mi WSW 12.7 mph - N/A   Clear
7:53 AM 46.9 °F - 36.0 °F 66% 29.59 in 10.0 mi WSW 11.5 mph - N/A   Clear
8:53 AM 52.0 °F - 37.0 °F 57% 29.59 in 10.0 mi WSW 16.1 mph - N/A   Clear
9:53 AM 64.0 °F - 39.0 °F 40% 29.57 in 10.0 mi West 18.4 mph 25.3 mph N/A   Clear
10:53 AM 70.0 °F - 39.0 °F 32% 29.56 in 10.0 mi WNW 23.0 mph 31.1 mph N/A   Clear
11:53 AM 73.0 °F - 37.9 °F 28% 29.60 in 10.0 mi NW 34.5 mph 50.6 mph N/A   Clear
12:53 PM 68.0 °F - 39.0 °F 35% 29.65 in 10.0 mi NNW 34.5 mph 42.6 mph N/A   Clear
1:53 PM 68.0 °F - 42.1 °F 39% 29.68 in 10.0 mi North 23.0 mph 29.9 mph N/A   Clear
2:53 PM 66.9 °F - 37.9 °F 34% 29.70 in 10.0 mi North 21.9 mph 31.1 mph N/A   Clear
3:53 PM 64.0 °F - 37.9 °F 38% 29.76 in 10.0 mi North 26.5 mph 34.5 mph N/A   Clear
4:53 PM 61.0 °F - 35.1 °F 38% 29.81 in 10.0 mi North 19.6 mph 28.8 mph N/A   Clear
5:53 PM 55.9 °F - 34.0 °F 44% 29.86 in 10.0 mi NNW 15.0 mph - N/A   Clear
6:53 PM 53.1 °F - 33.1 °F 47% 29.90 in 10.0 mi North 13.8 mph - N/A   Clear
7:53 PM 50.0 °F - 34.0 °F 54% 29.93 in 10.0 mi NNW 10.4 mph - N/A   Clear
8:53 PM 43.0 °F 37.7 °F 33.1 °F 68% 29.97 in 10.0 mi NW 9.2 mph - N/A   Clear
9:53 PM 39.0 °F 34.8 °F 30.9 °F 73% 30.00 in 10.0 mi WNW 5.8 mph - N/A   Clear
10:53 PM 37.9 °F 32.1 °F 30.9 °F 76% 30.05 in 10.0 mi WNW 8.1 mph - N/A   Clear
11:53 PM 36.0 °F 30.3 °F 30.0 °F 79% 30.07 in 10.0 mi West 6.9 mph - N/A   Clear